Ketchikan, AK

2:20 PM AKDT on July 22, 2018 (GMT -0800)
Ketchikan International

Weather History for PAKT - July, 2018

Change the Weather History Date:

Monday, July 9, 2018

  Actual Average Record
Temperature  
Mean Temperature 60 °F -  
Max Temperature 72 °F 64 °F 80 °F (1953)
Min Temperature 48 °F 50 °F 41 °F (1973)
Degree Days  
Heating Degree Days 6    
Growing Degree Days 10 (Base 50)    
Moisture  
Dew Point 50 °F    
Average Humidity 67    
Maximum Humidity 90    
Minimum Humidity 43    
Precipitation  
Precipitation 0.00 in - - ()
Sea Level Pressure  
Sea Level Pressure 30.11 in    
Wind  
Wind Speed 4 mph (SE)    
Max Wind Speed 15 mph    
Max Gust Speed -    
Visibility 10 miles    
Events      
Averages and records for this station are not official NWS values.
T = Trace of Precipitation, MM = Missing Value Source: NWS Daily Summary

Daily Weather History Graph

Daily Weather History Graph

Search for Another Location

Airport or City:

Astronomy

Jul. 09, 2018 Rise Set
Actual Time 4:18 AM AKDT 9:25 PM AKDT
Civil Twilight 3:22 AM AKDT 10:21 PM AKDT
Nautical Twilight 1:24 AM AKDT 12:14 AM AKDT
Astronomical Twilight Sun does not set Sun does not set
Moon 1:49 AM AKDT (7/9) 5:32 PM AKDT (7/9)
Length of Visible Light 18h 58m
Length of Day
17h 07m
Waning Crescent, 15% of the Moon is Illuminated
Jul 9
Waning Crescent
Jul 12
New
Jul 19
First Quarter
Jul 27
Full
Aug 4
Last Quarter

Hourly Weather History & Observations

Time (AKDT) Temp. Dew Point Humidity Pressure Visibility Wind Dir Wind Speed Gust Speed Precip Events Conditions
12:53 AM 54.0 °F 48.9 °F 83% 30.09 in 10.0 mi Calm Calm - N/A   Clear
1:53 AM 51.1 °F 48.0 °F 89% 30.10 in 10.0 mi SW 3.5 mph - N/A   Clear
2:53 AM 51.1 °F 46.9 °F 86% 30.10 in 10.0 mi Calm Calm - N/A   Clear
3:53 AM 48.9 °F 46.0 °F 90% 30.10 in 10.0 mi Calm Calm - N/A   Clear
4:53 AM 48.9 °F 46.0 °F 90% 30.09 in 10.0 mi Calm Calm - N/A   Clear
5:53 AM 54.0 °F 48.9 °F 83% 30.09 in 10.0 mi Calm Calm - N/A   Clear
6:53 AM 57.0 °F 51.1 °F 81% 30.10 in 10.0 mi SE 3.5 mph - N/A   Clear
7:53 AM 60.8 °F 51.8 °F 72% 30.11 in 10.0 mi ESE 8.1 mph - N/A   Overcast
8:53 AM 62.6 °F 53.6 °F 72% 30.11 in 10.0 mi SE 6.9 mph - N/A   Overcast
9:53 AM 62.6 °F 53.6 °F 72% 30.12 in 10.0 mi ESE 6.9 mph - N/A   Overcast
10:53 AM 66.2 °F 53.6 °F 64% 30.12 in 10.0 mi ESE 9.2 mph - N/A   Overcast
11:53 AM 69.8 °F 50.0 °F 49% 30.11 in 10.0 mi ESE 11.5 mph - N/A   Mostly Cloudy
12:53 PM 71.6 °F 48.2 °F 43% 30.12 in 10.0 mi SE 10.4 mph - N/A   Mostly Cloudy
1:53 PM 71.6 °F 50.0 °F 46% 30.12 in 10.0 mi ESE 11.5 mph - N/A   Scattered Clouds
2:53 PM 71.6 °F 48.2 °F 43% 30.12 in 10.0 mi SE 11.5 mph - N/A   Partly Cloudy
3:53 PM 71.6 °F 48.2 °F 43% 30.11 in 10.0 mi SE 12.7 mph - N/A   Clear
4:53 PM 69.8 °F 50.0 °F 49% 30.10 in 10.0 mi ESE 15.0 mph - N/A   Partly Cloudy
5:53 PM 68.0 °F 48.2 °F 49% 30.10 in 10.0 mi ESE 12.7 mph - N/A   Partly Cloudy
6:53 PM 66.2 °F 48.2 °F 52% 30.10 in 10.0 mi ESE 11.5 mph - N/A   Clear
7:53 PM 66.0 °F 48.9 °F 54% 30.10 in 10.0 mi ESE 8.1 mph - N/A   Scattered Clouds
8:53 PM 62.6 °F 51.8 °F 68% 30.10 in 10.0 mi SSE 5.8 mph - N/A   Scattered Clouds
9:53 PM 61.0 °F 52.0 °F 72% 30.11 in 10.0 mi Calm Calm - N/A   Overcast
10:53 PM 60.1 °F 53.1 °F 78% 30.12 in 10.0 mi Calm Calm - N/A   Overcast
11:53 PM 57.9 °F 52.0 °F 81% 30.12 in 10.0 mi Calm Calm - N/A   Overcast